When you browse on this site, cookies collect data to enhance your experience and personalize the content and advertising you see.
Visit our Privacy Policy to learn more. By continuing to use the site, you agree to this use of cookies and data.
  • In Schweiz
  • Länderverzeichnis
  • Für 7 Tage
  • Wassertemperatur
  • Wetterkarte
  • Widgets
  • user-avatar
    Anmelden

    Stündliche Wetter Bojsi

    Heute, 6 Juni, Samstag

    Zeit Temperatur Niederschläge Wind Luftdruck Luftfeuchtigkeit
    00:00 +17°C° 0.3 mm 4 m/S 678 mmHg 73%
    01:00 +16°C° 0.3 mm 2 m/S 678 mmHg 76%
    02:00 +16°C° 0.2 mm 3 m/S 678 mmHg 77%
    03:00 +16°C° 0.2 mm 3 m/S 678 mmHg 78%
    04:00 +14°C° 0.2 mm 3 m/S 678 mmHg 79%
    05:00 +14°C° 0.2 mm 4 m/S 678 mmHg 81%
    06:00 +14°C° 0.2 mm 5 m/S 678 mmHg 83%
    07:00 +13°C° 0.2 mm 6 m/S 678 mmHg 86%
    08:00 +13°C° 1.3 mm 5 m/S 678 mmHg 83%
    09:00 +13°C° 1.3 mm 4 m/S 678 mmHg 81%
    10:00 +13°C° 1.3 mm 3 m/S 678 mmHg 78%
    11:00 +15°C° 0.8 mm 2 m/S 678 mmHg 72%
    12:00 +16°C° 0.8 mm 2 m/S 678 mmHg 66%
    13:00 +17°C° 0.8 mm 2 m/S 678 mmHg 60%
    14:00 +17°C° 0.1 mm 2 m/S 678 mmHg 55%
    15:00 +18°C° 0.1 mm 2 m/S 678 mmHg 51%
    16:00 +19°C° 0.1 mm 2 m/S 678 mmHg 47%
    17:00 +18°C° 0.1 mm 2 m/S 678 mmHg 52%
    18:00 +16°C° 0.1 mm 2 m/S 678 mmHg 58%
    19:00 +15°C° 0.1 mm 2 m/S 678 mmHg 63%
    20:00 +14°C° 0.6 mm 2 m/S 678 mmHg 69%
    21:00 +12°C° 0.6 mm 2 m/S 677 mmHg 75%
    22:00 +10°C° 0.6 mm 2 m/S 677 mmHg 81%
    23:00 +10°C° 0.3 mm 2 m/S 678 mmHg 81%

    Morgen, 7 Juni, Sonntag

    Zeit Temperatur Niederschläge Wind Luftdruck Luftfeuchtigkeit
    00:00 +10°C° 0.3 mm 2 m/S 678 mmHg 81%
    01:00 +10°C° 0.3 mm 3 m/S 678 mmHg 81%
    02:00 +7°C° 2 mm 5 m/S 678 mmHg 84%
    03:00 +5°C° 2 mm 7 m/S 679 mmHg 87%
    04:00 +3°C° 2 mm 9 m/S 679 mmHg 90%
    05:00 +4°C° 0.9 mm 8 m/S 679 mmHg 89%
    06:00 +4°C° 0.9 mm 7 m/S 680 mmHg 87%
    07:00 +4°C° 0.9 mm 6 m/S 680 mmHg 85%
    08:00 +6°C° 0.4 mm 5 m/S 681 mmHg 81%
    09:00 +6°C° 0.4 mm 5 m/S 681 mmHg 78%
    10:00 +7°C° 0.4 mm 5 m/S 682 mmHg 74%
    11:00 +8°C° 0.2 mm 5 m/S 682 mmHg 70%
    12:00 +10°C° 0.2 mm 4 m/S 682 mmHg 65%
    13:00 +11°C° 0.2 mm 4 m/S 682 mmHg 61%
    14:00 +11°C° 0.3 mm 4 m/S 682 mmHg 60%
    15:00 +11°C° 0.3 mm 4 m/S 682 mmHg 59%
    16:00 +12°C° 0.3 mm 5 m/S 682 mmHg 58%
    17:00 +11°C° 0.2 mm 4 m/S 683 mmHg 63%
    18:00 +10°C° 0.2 mm 3 m/S 683 mmHg 67%
    19:00 +10°C° 0.2 mm 2 m/S 683 mmHg 72%
    20:00 +9°C° 0.2 mm 2 m/S 684 mmHg 74%
    21:00 +9°C° 0.2 mm 2 m/S 684 mmHg 76%
    22:00 +8°C° 0.2 mm 2 m/S 685 mmHg 78%
    23:00 +8°C° 0.1 mm 3 m/S 685 mmHg 78%

    übermorgen, 8 Juni, Montag

    Zeit Temperatur Niederschläge Wind Luftdruck Luftfeuchtigkeit
    00:00 +8°C° 0.1 mm 3 m/S 686 mmHg 79%
    01:00 +7°C° 0.1 mm 4 m/S 686 mmHg 79%
    02:00 +7°C° 0 mm 3 m/S 686 mmHg 78%
    03:00 +7°C° 0 mm 3 m/S 687 mmHg 78%
    04:00 +5°C° 0 mm 3 m/S 687 mmHg 77%
    05:00 +6°C° 0 mm 4 m/S 688 mmHg 72%
    06:00 +7°C° 0 mm 4 m/S 688 mmHg 67%
    07:00 +8°C° 0 mm 5 m/S 689 mmHg 62%
    08:00 +9°C° 0 mm 5 m/S 689 mmHg 58%
    09:00 +9°C° 0 mm 5 m/S 689 mmHg 55%
    10:00 +11°C° 0 mm 4 m/S 689 mmHg 52%
    11:00 +12°C° 0 mm 4 m/S 689 mmHg 49%
    12:00 +13°C° 0 mm 4 m/S 689 mmHg 45%
    13:00 +14°C° 0 mm 3 m/S 689 mmHg 42%
    14:00 +16°C° 0 mm 3 m/S 689 mmHg 40%
    15:00 +16°C° 0 mm 3 m/S 689 mmHg 38%
    16:00 +17°C° 0 mm 2 m/S 689 mmHg 35%
    17:00 +15°C° 0 mm 2 m/S 689 mmHg 40%
    18:00 +14°C° 0 mm 1 m/S 689 mmHg 44%
    19:00 +13°C° 0 mm 1 m/S 689 mmHg 49%
    20:00 +12°C° 0 mm 1 m/S 689 mmHg 49%
    21:00 +12°C° 0 mm 2 m/S 689 mmHg 50%
    22:00 +10°C° 0 mm 2 m/S 690 mmHg 50%
    23:00 +9°C° 0 mm 2 m/S 690 mmHg 52%

    9 Juni, Dienstag

    Zeit Temperatur Niederschläge Wind Luftdruck Luftfeuchtigkeit
    00:00 +9°C° 0 mm 2 m/S 689 mmHg 54%
    01:00 +8°C° 0 mm 2 m/S 689 mmHg 56%
    02:00 +8°C° 0 mm 2 m/S 689 mmHg 56%
    03:00 +8°C° 0 mm 2 m/S 689 mmHg 55%
    04:00 +8°C° 0 mm 2 m/S 689 mmHg 55%
    05:00 +10°C° 0 mm 2 m/S 689 mmHg 50%
    06:00 +13°C° 0 mm 1 m/S 690 mmHg 46%
    07:00 +15°C° 0 mm 1 m/S 690 mmHg 42%
    08:00 +16°C° 0 mm 1 m/S 690 mmHg 41%
    09:00 +16°C° 0 mm 1 m/S 690 mmHg 40%
    10:00 +17°C° 0 mm 2 m/S 690 mmHg 40%
    11:00 +17°C° 0 mm 2 m/S 690 mmHg 41%
    12:00 +18°C° 0 mm 1 m/S 690 mmHg 42%
    13:00 +19°C° 0 mm 1 m/S 690 mmHg 44%
    14:00 +19°C° 0 mm 1 m/S 690 mmHg 43%
    15:00 +19°C° 0 mm 2 m/S 690 mmHg 43%
    16:00 +20°C° 0 mm 2 m/S 690 mmHg 43%
    17:00 +19°C° 0 mm 2 m/S 690 mmHg 48%
    18:00 +19°C° 0 mm 1 m/S 690 mmHg 53%
    19:00 +18°C° 0 mm 1 m/S 690 mmHg 58%
    20:00 +16°C° 0 mm 1 m/S 690 mmHg 60%
    21:00 +15°C° 0 mm 1 m/S 690 mmHg 63%
    22:00 +14°C° 0 mm 1 m/S 690 mmHg 65%
    23:00 +14°C° 0 mm 1 m/S 690 mmHg 67%

    10 Juni, Mittwoch

    Zeit Temperatur Niederschläge Wind Luftdruck Luftfeuchtigkeit
    00:00 +13°C° 0 mm 1 m/S 690 mmHg 68%
    01:00 +13°C° 0 mm 2 m/S 690 mmHg 70%
    02:00 +12°C° 0 mm 1 m/S 690 mmHg 71%
    03:00 +12°C° 0 mm 1 m/S 690 mmHg 72%
    04:00 +12°C° 0 mm 1 m/S 690 mmHg 72%
    05:00 +14°C° 0 mm 1 m/S 691 mmHg 66%
    06:00 +15°C° 0 mm 0 m/S 691 mmHg 59%
    07:00 +17°C° 0 mm 0 m/S 691 mmHg 52%
    08:00 +19°C° 0 mm 0 m/S 692 mmHg 48%
    09:00 +23°C° 0 mm 1 m/S 692 mmHg 44%
    10:00 +24°C° 0 mm 1 m/S 692 mmHg 40%
    11:00 +25°C° 0 mm 1 m/S 692 mmHg 37%
    12:00 +26°C° 0 mm 1 m/S 691 mmHg 34%
    13:00 +27°C° 0 mm 1 m/S 691 mmHg 30%
    14:00 +28°C° 0 mm 1 m/S 691 mmHg 30%
    15:00 +28°C° 0 mm 1 m/S 691 mmHg 30%
    16:00 +28°C° 0 mm 1 m/S 690 mmHg 29%
    17:00 +26°C° 0 mm 1 m/S 690 mmHg 34%
    18:00 +25°C° 0 mm 1 m/S 689 mmHg 40%
    19:00 +23°C° 0 mm 1 m/S 689 mmHg 45%
    20:00 +21°C° 0 mm 2 m/S 689 mmHg 44%
    21:00 +21°C° 0 mm 2 m/S 689 mmHg 43%
    22:00 +20°C° 0 mm 2 m/S 689 mmHg 42%
    23:00 +19°C° 0 mm 2 m/S 689 mmHg 44%

    11 Juni, Donnerstag

    Zeit Temperatur Niederschläge Wind Luftdruck Luftfeuchtigkeit
    00:00 +19°C° 0 mm 2 m/S 689 mmHg 45%
    01:00 +18°C° 0 mm 3 m/S 689 mmHg 46%
    02:00 +18°C° 0 mm 3 m/S 689 mmHg 46%
    03:00 +17°C° 0 mm 2 m/S 688 mmHg 46%
    04:00 +17°C° 0 mm 2 m/S 688 mmHg 46%
    05:00 +19°C° 0 mm 2 m/S 689 mmHg 44%
    06:00 +21°C° 0 mm 2 m/S 689 mmHg 41%
    07:00 +24°C° 0 mm 2 m/S 689 mmHg 38%
    08:00 +26°C° 0 mm 3 m/S 689 mmHg 35%
    09:00 +28°C° 0 mm 4 m/S 689 mmHg 31%
    10:00 +30°C° 0 mm 5 m/S 689 mmHg 27%
    11:00 +32°C° 0 mm 6 m/S 689 mmHg 25%
    12:00 +33°C° 0 mm 6 m/S 689 mmHg 24%
    13:00 +35°C° 0 mm 6 m/S 689 mmHg 22%
    14:00 +35°C° 0 mm 6 m/S 688 mmHg 21%
    15:00 +35°C° 0 mm 5 m/S 688 mmHg 20%
    16:00 +35°C° 0 mm 4 m/S 688 mmHg 19%
    17:00 +33°C° 0 mm 4 m/S 687 mmHg 27%
    18:00 +29°C° 0 mm 3 m/S 686 mmHg 35%
    19:00 +26°C° 0 mm 3 m/S 685 mmHg 43%
    20:00 +26°C° 0 mm 2 m/S 686 mmHg 41%
    21:00 +25°C° 0 mm 2 m/S 686 mmHg 40%
    22:00 +24°C° 0 mm 2 m/S 686 mmHg 38%
    23:00 +23°C° 0 mm 2 m/S 685 mmHg 38%
    Mehr zeigen